Location: *
(51.2167°N, 10.0667°E)
Time: 17:04:29
(UTC+00:00)

Cosmos 1666 - Pass Details

Date: 12 December 2019
Orbit: 498 x 521 km, 82.5° (Epoch: 23 January)

Event Time Altitude Azimuth Distance (km) Brightness Sun altitude
Rises 16:21:21 0° 353° (N) 2,611 6.1 -10.1°
Reaches altitude 10° 16:23:32 10° 360° (N) 1,719 5.1 -10.4°
Maximum altitude 16:27:11 48° 75° (ENE) 667 2.8 -11.0°
Drops below altitude 10° 16:30:48 10° 151° (SSE) 1,700 5.3 -11.5°
Sets 16:32:57 0° 157° (SSE) 2,578 6.3 -11.8°
